Time,TemperatureF,DewpointF,PressureIn,WindDirection,WindDirectionDegrees,WindSpeedMPH,WindSpeedGustMPH,Humidity,HourlyPrecipIn,Conditions,Clouds,dailyrainin,SolarRadiationWatts/m^2,SoftwareType,DateUTC
2013-04-10 00:00:00,37.8,36.0,29.91,ENE,69,15.0,16.0,93,0.04,,,1.44,0,Wunderground v.1.15,2013-04-10 05:00:00,
2013-04-10 00:09:00,37.8,36.0,29.89,NE,47,13.0,14.0,93,0.00,,,1.44,0,Wunderground v.1.15,2013-04-10 05:09:00,
2013-04-10 00:19:00,37.6,35.8,29.86,NE,49,14.0,14.0,93,0.00,,,0.00,0,Wunderground v.1.15,2013-04-10 05:19:00,
2013-04-10 00:29:00,37.6,35.8,29.85,NE,40,15.0,15.0,93,0.00,,,0.00,0,Wunderground v.1.15,2013-04-10 05:29:00,
2013-04-10 00:39:00,37.6,35.8,29.88,NE,40,13.0,13.0,93,0.00,,,0.00,0,Wunderground v.1.15,2013-04-10 05:39:00,
2013-04-10 00:49:00,37.8,36.0,29.90,ENE,75,11.0,11.0,93,0.00,,,0.00,0,Wunderground v.1.15,2013-04-10 05:49:00,
2013-04-10 00:59:00,37.9,36.1,29.93,NE,43,8.0,8.0,93,0.00,,,0.00,0,Wunderground v.1.15,2013-04-10 05:59:00,
2013-04-10 01:09:00,38.1,36.3,29.94,North,9,6.0,7.0,93,0.00,,,0.00,0,Wunderground v.1.15,2013-04-10 06:09:00,
2013-04-10 01:20:00,38.1,36.3,29.93,NE,39,8.0,8.0,93,0.00,,,0.00,0,Wunderground v.1.15,2013-04-10 06:20:00,
2013-04-10 01:30:00,38.1,36.3,29.95,NNE,17,8.0,8.0,93,0.00,,,0.00,0,Wunderground v.1.15,2013-04-10 06:30:00,
2013-04-10 01:39:00,38.0,36.2,29.95,North,360,8.0,9.0,93,0.00,,,0.00,0,Wunderground v.1.15,2013-04-10 06:39:00,
2013-04-10 01:49:00,37.9,36.1,29.95,North,355,8.0,9.0,93,0.00,,,0.00,0,Wunderground v.1.15,2013-04-10 06:49:00,
2013-04-10 02:00:00,37.8,36.0,29.97,North,5,9.0,11.0,93,0.00,,,0.00,0,Wunderground v.1.15,2013-04-10 07:00:00,
2013-04-10 02:09:00,37.9,36.1,29.96,NNE,16,7.0,7.0,93,0.00,,,0.00,0,Wunderground v.1.15,2013-04-10 07:09:00,
2013-04-10 02:19:00,37.9,36.1,30.00,North,5,6.0,6.0,93,0.00,,,0.00,0,Wunderground v.1.15,2013-04-10 07:19:00,
2013-04-10 02:29:00,38.0,36.2,30.01,North,355,5.0,6.0,93,0.00,,,0.00,0,Wunderground v.1.15,2013-04-10 07:29:00,
2013-04-10 02:40:00,37.8,36.0,30.00,North,9,6.0,6.0,93,0.00,,,0.01,0,Wunderground v.1.15,2013-04-10 07:40:00,
2013-04-10 02:49:00,37.6,35.8,29.96,ENE,76,7.0,10.0,93,0.00,,,0.01,0,Wunderground v.1.15,2013-04-10 07:49:00,
2013-04-10 03:00:00,37.4,35.6,29.97,NNE,27,7.0,7.0,93,0.08,,,0.03,0,Wunderground v.1.15,2013-04-10 08:00:00,
2013-04-10 03:10:00,37.4,35.8,29.93,NE,40,8.0,10.0,94,0.07,,,0.04,0,Wunderground v.1.15,2013-04-10 08:10:00,
2013-04-10 03:19:00,37.4,35.8,29.92,ENE,62,11.0,14.0,94,0.13,,,0.06,0,Wunderground v.1.15,2013-04-10 08:19:00,
2013-04-10 03:30:00,37.3,35.7,29.88,ENE,62,13.0,22.0,94,0.07,,,0.07,0,Wunderground v.1.15,2013-04-10 08:30:00,
2013-04-10 03:40:00,37.2,35.6,29.88,NE,46,14.0,17.0,94,0.00,,,0.07,0,Wunderground v.1.15,2013-04-10 08:40:00,
2013-04-10 03:49:00,37.2,35.6,29.86,NE,45,12.0,12.0,94,0.00,,,0.07,0,Wunderground v.1.15,2013-04-10 08:49:00,
2013-04-10 03:59:00,37.1,35.5,29.88,North,355,12.0,12.0,94,0.00,,,0.07,0,Wunderground v.1.15,2013-04-10 08:59:00,
2013-04-10 04:10:00,37.0,35.4,29.85,East,80,13.0,13.0,94,0.00,,,0.07,0,Wunderground v.1.15,2013-04-10 09:10:00,
2013-04-10 04:19:00,36.9,35.3,29.84,NNE,27,15.0,16.0,94,0.00,,,0.07,0,Wunderground v.1.15,2013-04-10 09:19:00,
2013-04-10 04:29:00,37.0,35.4,29.89,NE,51,13.0,13.0,94,0.00,,,0.07,0,Wunderground v.1.15,2013-04-10 09:29:00,
2013-04-10 04:40:00,37.1,35.5,29.94,NNE,15,8.0,8.0,94,0.00,,,0.07,0,Wunderground v.1.15,2013-04-10 09:40:00,
2013-04-10 04:49:00,37.0,35.4,29.94,NNE,19,8.0,9.0,94,0.00,,,0.07,0,Wunderground v.1.15,2013-04-10 09:49:00,
2013-04-10 04:59:00,36.9,35.3,29.94,North,360,9.0,12.0,94,0.00,,,0.07,0,Wunderground v.1.15,2013-04-10 09:59:00,
2013-04-10 05:10:00,36.7,34.9,29.92,NNE,25,9.0,10.0,93,0.00,,,0.07,0,Wunderground v.1.15,2013-04-10 10:10:00,
2013-04-10 05:20:00,36.5,34.7,29.91,NNE,18,11.0,11.0,93,0.00,,,0.07,0,Wunderground v.1.15,2013-04-10 10:20:00,
2013-04-10 05:29:00,36.4,34.6,29.91,NNE,28,9.0,10.0,93,0.00,,,0.07,0,Wunderground v.1.15,2013-04-10 10:29:00,
2013-04-10 05:39:00,36.1,34.3,29.89,NNE,30,10.0,10.0,93,0.00,,,0.07,0,Wunderground v.1.15,2013-04-10 10:39:00,
2013-04-10 05:50:00,36.0,34.2,29.89,NE,50,10.0,17.0,93,0.00,,,0.07,0,Wunderground v.1.15,2013-04-10 10:50:00,
2013-04-10 06:00:00,35.8,34.2,29.89,North,355,10.0,11.0,94,0.00,,,0.07,0,Wunderground v.1.15,2013-04-10 11:00:00,
2013-04-10 06:09:00,35.5,33.7,29.90,NE,46,9.0,15.0,93,0.00,,,0.07,0,Wunderground v.1.15,2013-04-10 11:09:00,
2013-04-10 06:20:00,35.2,33.4,29.91,NNE,33,11.0,15.0,93,0.00,,,0.07,0,Wunderground v.1.15,2013-04-10 11:20:00,
2013-04-10 06:30:00,35.1,33.3,29.92,NNE,26,10.0,10.0,93,0.00,,,0.07,0,Wunderground v.1.15,2013-04-10 11:30:00,
2013-04-10 06:39:00,34.9,33.1,29.90,NNE,27,10.0,10.0,93,0.00,,,0.07,0,Wunderground v.1.15,2013-04-10 11:39:00,
2013-04-10 06:50:00,34.8,33.0,29.91,NNE,27,11.0,11.0,93,0.00,,,0.07,0,Wunderground v.1.15,2013-04-10 11:50:00,
2013-04-10 07:00:00,34.6,32.8,29.92,NE,36,11.0,11.0,93,0.00,,,0.07,0,Wunderground v.1.15,2013-04-10 12:00:00,
2013-04-10 07:09:00,34.6,32.8,29.94,North,5,10.0,10.0,93,0.00,,,0.07,0,Wunderground v.1.15,2013-04-10 12:09:00,
2013-04-10 07:19:00,34.7,32.9,29.95,NE,34,9.0,13.0,93,0.00,,,0.07,5,Wunderground v.1.15,2013-04-10 12:19:00,
2013-04-10 07:30:00,34.7,32.9,29.97,ENE,66,9.0,9.0,93,0.00,,,0.07,5,Wunderground v.1.15,2013-04-10 12:30:00,
2013-04-10 07:39:00,34.7,32.9,29.96,NE,47,10.0,10.0,93,0.00,,,0.07,7,Wunderground v.1.15,2013-04-10 12:39:00,
2013-04-10 07:49:00,34.7,32.9,29.96,ENE,57,9.0,11.0,93,0.00,,,0.07,9,Wunderground v.1.15,2013-04-10 12:49:00,
2013-04-10 07:59:00,34.8,33.0,29.97,East,95,8.0,8.0,93,0.00,,,0.07,11,Wunderground v.1.15,2013-04-10 12:59:00,
2013-04-10 08:10:00,34.9,32.8,29.98,NE,46,9.0,9.0,92,0.00,,,0.07,11,Wunderground v.1.15,2013-04-10 13:10:00,
2013-04-10 08:19:00,34.9,32.8,29.98,NE,51,9.0,9.0,92,0.00,,,0.07,16,Wunderground v.1.15,2013-04-10 13:19:00,
2013-04-10 08:30:00,34.9,32.8,29.98,ENE,71,8.0,9.0,92,0.00,,,0.07,21,Wunderground v.1.15,2013-04-10 13:30:00,
2013-04-10 08:40:00,34.8,32.7,29.98,NE,45,8.0,12.0,92,0.00,,,0.08,28,Wunderground v.1.15,2013-04-10 13:40:00,
2013-04-10 08:49:00,34.7,32.6,29.98,ENE,59,9.0,9.0,92,0.00,,,0.08,32,Wunderground v.1.15,2013-04-10 13:49:00,
2013-04-10 09:00:00,34.7,32.9,29.98,ENE,68,7.0,14.0,93,0.00,,,0.09,23,Wunderground v.1.15,2013-04-10 14:00:00,
2013-04-10 09:09:00,34.5,32.4,29.98,NNE,29,9.0,10.0,92,0.00,,,0.09,21,Wunderground v.1.15,2013-04-10 14:09:00,
2013-04-10 09:19:00,34.5,32.7,29.97,NNE,24,8.0,8.0,93,0.00,,,0.09,39,Wunderground v.1.15,2013-04-10 14:19:00,
2013-04-10 09:30:00,34.5,32.7,29.95,NNE,20,8.0,9.0,93,0.00,,,0.10,62,Wunderground v.1.15,2013-04-10 14:30:00,
2013-04-10 09:39:00,34.5,32.7,29.94,ENE,65,10.0,10.0,93,0.00,,,0.10,69,Wunderground v.1.15,2013-04-10 14:39:00,
2013-04-10 09:49:00,34.6,32.8,29.96,ENE,59,9.0,11.0,93,0.00,,,0.11,53,Wunderground v.1.15,2013-04-10 14:49:00,
2013-04-10 09:59:00,34.5,32.7,29.97,NNE,15,8.0,8.0,93,0.00,,,0.11,42,Wunderground v.1.15,2013-04-10 14:59:00,
2013-04-10 10:09:00,34.5,32.7,29.97,ENE,63,9.0,9.0,93,0.00,,,0.11,76,Wunderground v.1.15,2013-04-10 15:09:00,
2013-04-10 10:19:00,35.0,33.2,29.95,ENE,63,8.0,8.0,93,0.00,,,0.11,130,Wunderground v.1.15,2013-04-10 15:19:00,
2013-04-10 10:30:00,35.4,33.6,29.93,NE,53,10.0,10.0,93,0.00,,,0.11,186,Wunderground v.1.15,2013-04-10 15:30:00,
2013-04-10 10:39:00,35.4,33.3,29.93,NE,54,10.0,10.0,92,0.00,,,0.11,171,Wunderground v.1.15,2013-04-10 15:39:00,
2013-04-10 10:50:00,35.6,33.5,29.93,NNE,22,10.0,10.0,92,0.00,,,0.11,206,Wunderground v.1.15,2013-04-10 15:50:00,
2013-04-10 11:00:00,36.3,34.2,29.92,ENE,74,10.0,14.0,92,0.00,,,0.11,290,Wunderground v.1.15,2013-04-10 16:00:00,
2013-04-10 11:09:00,36.3,33.9,29.93,East,94,11.0,11.0,91,0.00,,,0.11,211,Wunderground v.1.15,2013-04-10 16:09:00,
2013-04-10 11:20:00,36.2,33.8,29.95,ENE,63,11.0,11.0,91,0.00,,,0.11,88,Wunderground v.1.15,2013-04-10 16:20:00,
2013-04-10 11:29:00,35.7,33.3,29.96,ENE,76,9.0,9.0,91,0.00,,,0.11,65,Wunderground v.1.15,2013-04-10 16:29:00,
2013-04-10 11:39:00,35.7,33.3,29.98,ENE,64,7.0,7.0,91,0.00,,,0.11,65,Wunderground v.1.15,2013-04-10 16:39:00,
2013-04-10 11:50:00,35.7,33.3,29.98,NE,48,7.0,7.0,91,0.00,,,0.11,47,Wunderground v.1.15,2013-04-10 16:50:00,
2013-04-10 12:00:00,35.7,33.3,29.98,ENE,69,6.0,10.0,91,0.00,,,0.11,63,Wunderground v.1.15,2013-04-10 17:00:00,
2013-04-10 12:09:00,35.9,33.5,29.98,ENE,60,7.0,7.0,91,0.00,,,0.11,69,Wunderground v.1.15,2013-04-10 17:09:00,
2013-04-10 12:19:00,36.0,33.6,30.00,North,360,3.0,3.0,91,0.00,,,0.11,46,Wunderground v.1.15,2013-04-10 17:19:00,
2013-04-10 12:30:00,35.9,33.5,30.00,NE,42,4.0,5.0,91,0.00,,,0.11,83,Wunderground v.1.15,2013-04-10 17:30:00,
2013-04-10 12:39:00,36.1,34.3,29.99,ENE,68,5.0,7.0,93,0.00,,,0.12,114,Wunderground v.1.15,2013-04-10 17:39:00,
2013-04-10 12:50:00,36.2,34.4,29.97,NE,35,6.0,6.0,93,0.05,,,0.13,104,Wunderground v.1.15,2013-04-10 17:50:00,
2013-04-10 12:59:00,36.1,34.5,29.99,NE,35,5.0,5.0,94,0.05,,,0.13,70,Wunderground v.1.15,2013-04-10 17:59:00,
2013-04-10 13:09:00,36.0,34.4,30.00,NE,47,4.0,4.0,94,0.04,,,0.14,86,Wunderground v.1.15,2013-04-10 18:09:00,
2013-04-10 13:20:00,36.3,34.7,30.00,NE,45,3.0,3.0,94,0.05,,,0.15,130,Wunderground v.1.15,2013-04-10 18:20:00,
2013-04-10 13:29:00,36.7,35.1,30.00,NE,55,3.0,7.0,94,0.06,,,0.16,123,Wunderground v.1.15,2013-04-10 18:29:00,
2013-04-10 13:40:00,36.7,35.1,29.99,NE,38,5.0,6.0,94,0.04,,,0.16,127,Wunderground v.1.15,2013-04-10 18:40:00,
2013-04-10 13:49:00,36.9,35.3,29.98,NNE,19,4.0,4.0,94,0.04,,,0.17,125,Wunderground v.1.15,2013-04-10 18:49:00,
2013-04-10 14:00:00,37.0,35.4,29.98,NNE,27,4.0,6.0,94,0.00,,,0.17,190,Wunderground v.1.15,2013-04-10 19:00:00,
2013-04-10 14:10:00,37.3,35.7,29.98,NE,36,4.0,4.0,94,0.00,,,0.17,144,Wunderground v.1.15,2013-04-10 19:10:00,
2013-04-10 14:19:00,37.3,35.7,29.98,North,11,4.0,5.0,94,0.00,,,0.17,114,Wunderground v.1.15,2013-04-10 19:19:00,
2013-04-10 14:30:00,37.3,35.7,29.97,NNE,17,4.0,7.0,94,0.00,,,0.17,160,Wunderground v.1.15,2013-04-10 19:30:00,
2013-04-10 14:39:00,37.2,35.6,29.97,NNE,24,5.0,5.0,94,0.00,,,0.17,127,Wunderground v.1.15,2013-04-10 19:39:00,
2013-04-10 14:49:00,37.3,35.7,29.96,NNE,28,5.0,5.0,94,0.00,,,0.17,156,Wunderground v.1.15,2013-04-10 19:49:00,
2013-04-10 14:59:00,37.6,36.0,29.97,ENE,57,6.0,7.0,94,0.00,,,0.17,232,Wunderground v.1.15,2013-04-10 19:59:00,
2013-04-10 15:10:00,37.8,36.0,29.97,NE,35,6.0,6.0,93,0.00,,,0.17,176,Wunderground v.1.15,2013-04-10 20:10:00,
2013-04-10 15:19:00,38.4,36.8,29.95,ENE,65,5.0,11.0,94,0.00,,,0.17,174,Wunderground v.1.15,2013-04-10 20:19:00,
2013-04-10 15:29:00,38.2,36.4,29.95,NE,43,7.0,7.0,93,0.00,,,0.17,135,Wunderground v.1.15,2013-04-10 20:29:00,
2013-04-10 15:40:00,37.9,35.8,29.95,NNE,26,7.0,7.0,92,0.00,,,0.17,179,Wunderground v.1.15,2013-04-10 20:40:00,
2013-04-10 15:50:00,38.1,36.0,29.94,NE,53,6.0,7.0,92,0.00,,,0.17,121,Wunderground v.1.15,2013-04-10 20:50:00,
2013-04-10 15:59:00,38.3,36.2,29.93,NNE,17,6.0,6.0,92,0.00,,,0.17,137,Wunderground v.1.15,2013-04-10 20:59:00,
2013-04-10 16:09:00,38.4,36.3,29.93,NNE,27,6.0,7.0,92,0.00,,,0.17,163,Wunderground v.1.15,2013-04-10 21:09:00,
2013-04-10 16:20:00,38.3,36.2,29.93,NNE,24,6.0,6.0,92,0.00,,,0.17,76,Wunderground v.1.15,2013-04-10 21:20:00,
2013-04-10 16:29:00,37.8,35.7,29.92,North,11,7.0,7.0,92,0.00,,,0.17,93,Wunderground v.1.15,2013-04-10 21:29:00,
2013-04-10 16:40:00,37.7,35.6,29.90,NNE,26,7.0,9.0,92,0.00,,,0.17,105,Wunderground v.1.15,2013-04-10 21:40:00,
2013-04-10 16:49:00,37.8,35.7,29.91,NNE,15,7.0,7.0,92,0.00,,,0.17,90,Wunderground v.1.15,2013-04-10 21:49:00,
2013-04-10 16:59:00,37.9,35.8,29.91,NE,42,6.0,8.0,92,0.00,,,0.17,69,Wunderground v.1.15,2013-04-10 21:59:00,
2013-04-10 17:10:00,37.7,35.6,29.91,NE,43,6.0,6.0,92,0.00,,,0.17,58,Wunderground v.1.15,2013-04-10 22:10:00,
2013-04-10 17:19:00,37.4,35.3,29.91,NNE,32,7.0,7.0,92,0.00,,,0.17,65,Wunderground v.1.15,2013-04-10 22:19:00,
2013-04-10 17:29:00,37.5,35.4,29.91,NNE,13,7.0,8.0,92,0.00,,,0.17,60,Wunderground v.1.15,2013-04-10 22:29:00,
2013-04-10 17:40:00,37.6,35.5,29.90,NNE,30,5.0,5.0,92,0.00,,,0.17,56,Wunderground v.1.15,2013-04-10 22:40:00,
2013-04-10 17:49:00,37.5,35.4,29.89,NE,49,6.0,6.0,92,0.00,,,0.17,54,Wunderground v.1.15,2013-04-10 22:49:00,
2013-04-10 18:00:00,37.4,35.3,29.89,NNE,30,5.0,8.0,92,0.00,,,0.17,32,Wunderground v.1.15,2013-04-10 23:00:00,
2013-04-10 18:09:00,36.9,34.8,29.87,NE,46,9.0,9.0,92,0.00,,,0.17,35,Wunderground v.1.15,2013-04-10 23:09:00,
2013-04-10 18:20:00,36.8,35.0,29.86,NE,48,9.0,9.0,93,0.00,,,0.17,42,Wunderground v.1.15,2013-04-10 23:20:00,
2013-04-10 18:29:00,36.7,34.9,29.86,NE,43,8.0,8.0,93,0.00,,,0.17,35,Wunderground v.1.15,2013-04-10 23:29:00,
2013-04-10 18:40:00,36.4,34.6,29.85,North,355,10.0,10.0,93,0.00,,,0.17,21,Wunderground v.1.15,2013-04-10 23:40:00,
2013-04-10 18:50:00,36.3,34.5,29.85,NE,54,8.0,8.0,93,0.00,,,0.17,12,Wunderground v.1.15,2013-04-10 23:50:00,
2013-04-10 18:59:00,36.1,34.3,29.85,ENE,78,8.0,9.0,93,0.00,,,0.17,30,Wunderground v.1.15,2013-04-10 23:59:00,
2013-04-10 19:10:00,36.1,34.3,29.85,NNE,28,7.0,7.0,93,0.00,,,0.17,26,Wunderground v.1.15,2013-04-11 00:10:00,
2013-04-10 19:20:00,36.1,34.3,29.84,NNE,26,7.0,7.0,93,0.00,,,0.17,21,Wunderground v.1.15,2013-04-11 00:20:00,
2013-04-10 19:29:00,36.1,34.3,29.84,ENE,67,6.0,6.0,93,0.00,,,0.18,19,Wunderground v.1.15,2013-04-11 00:29:00,
2013-04-10 19:40:00,35.8,34.2,29.83,NE,55,8.0,8.0,94,0.00,,,0.18,14,Wunderground v.1.15,2013-04-11 00:40:00,
2013-04-10 19:49:00,35.6,34.0,29.83,NE,46,7.0,11.0,94,0.00,,,0.19,5,Wunderground v.1.15,2013-04-11 00:49:00,
2013-04-10 19:59:00,35.4,33.8,29.84,NE,47,8.0,12.0,94,0.04,,,0.20,0,Wunderground v.1.15,2013-04-11 00:59:00,
2013-04-10 20:10:00,35.2,33.6,29.83,NNE,25,7.0,7.0,94,0.07,,,0.21,0,Wunderground v.1.15,2013-04-11 01:10:00,
2013-04-10 20:19:00,35.2,33.6,29.83,NNE,16,5.0,5.0,94,0.06,,,0.22,0,Wunderground v.1.15,2013-04-11 01:19:00,
2013-04-10 20:30:00,35.2,33.6,29.83,ENE,75,7.0,12.0,94,0.04,,,0.22,0,Wunderground v.1.15,2013-04-11 01:30:00,
2013-04-10 20:40:00,35.2,33.6,29.84,NE,56,7.0,7.0,94,0.04,,,0.23,0,Wunderground v.1.15,2013-04-11 01:40:00,
2013-04-10 20:49:00,35.2,33.6,29.84,NE,49,5.0,5.0,94,0.00,,,0.23,0,Wunderground v.1.15,2013-04-11 01:49:00,
2013-04-10 21:00:00,35.1,33.5,29.84,NE,52,6.0,13.0,94,0.00,,,0.24,0,Wunderground v.1.15,2013-04-11 02:00:00,
2013-04-10 21:10:00,35.0,33.4,29.85,East,85,7.0,8.0,94,0.04,,,0.25,0,Wunderground v.1.15,2013-04-11 02:10:00,
2013-04-10 21:19:00,34.9,33.3,29.85,NE,38,6.0,6.0,94,0.06,,,0.26,0,Wunderground v.1.15,2013-04-11 02:19:00,
2013-04-10 21:29:00,35.0,33.4,29.87,NE,53,4.0,4.0,94,0.09,,,0.27,0,Wunderground v.1.15,2013-04-11 02:29:00,
2013-04-10 21:40:00,35.0,33.4,29.87,East,79,4.0,4.0,94,0.06,,,0.28,0,Wunderground v.1.15,2013-04-11 02:40:00,
2013-04-10 21:49:00,35.0,33.4,29.86,NE,51,4.0,4.0,94,0.09,,,0.29,0,Wunderground v.1.15,2013-04-11 02:49:00,
2013-04-10 21:59:00,35.0,33.4,29.85,ENE,64,4.0,4.0,94,0.05,,,0.30,0,Wunderground v.1.15,2013-04-11 02:59:00,
2013-04-10 22:09:00,35.1,33.8,29.84,NE,49,4.0,5.0,95,0.06,,,0.31,0,Wunderground v.1.15,2013-04-11 03:09:00,
2013-04-10 22:20:00,35.1,33.8,29.83,ENE,71,4.0,4.0,95,0.04,,,0.32,0,Wunderground v.1.15,2013-04-11 03:20:00,
2013-04-10 22:29:00,35.1,33.8,29.82,NE,36,3.0,4.0,95,0.04,,,0.32,0,Wunderground v.1.15,2013-04-11 03:29:00,
2013-04-10 22:39:00,35.2,33.9,29.82,NE,40,2.0,2.0,95,0.00,,,0.32,0,Wunderground v.1.15,2013-04-11 03:39:00,
2013-04-10 22:50:00,35.2,33.9,29.82,ENE,61,2.0,2.0,95,0.00,,,0.32,0,Wunderground v.1.15,2013-04-11 03:50:00,
2013-04-10 22:59:00,35.3,34.0,29.81,NE,47,2.0,2.0,95,0.00,,,0.32,0,Wunderground v.1.15,2013-04-11 03:59:00,
2013-04-10 23:09:00,35.4,34.1,29.80,NE,38,2.0,2.0,95,0.00,,,0.32,0,Wunderground v.1.15,2013-04-11 04:09:00,
2013-04-10 23:20:00,35.5,34.2,29.80,NE,38,2.0,2.0,95,0.00,,,0.32,0,Wunderground v.1.15,2013-04-11 04:20:00,
2013-04-10 23:30:00,35.5,34.2,29.80,NE,55,2.0,2.0,95,0.00,,,0.32,0,Wunderground v.1.15,2013-04-11 04:30:00,
2013-04-10 23:39:00,35.5,34.2,29.81,NE,53,0.0,0.0,95,0.00,,,0.33,0,Wunderground v.1.15,2013-04-11 04:39:00,
2013-04-10 23:50:00,35.6,34.3,29.81,NE,53,0.0,0.0,95,0.04,,,0.34,0,Wunderground v.1.15,2013-04-11 04:50:00,